Вернуться в каталог

CRRES DEB

CANISTER

АктивенHEO
NORAD 21778·DEBRIS·🇺🇸 United States

Запущен Jul 25, 1990 с Cape Canaveral Space Force Station

Loading…

Ближайшие Пролёты (ближайшие 24 часа)

TLE

УстаревающийSource: Space-Track

Эпоха: Aug 24, 2026, 20:41 UTC

1 21778U 90065R   26236.86180613 -.00000214  00000-0  43380-3 0  9996
2 21778  17.7446 150.6473 7004071 200.3835 104.6979  2.57329222132839

Отслеживайте CRRES DEB в реальном времени с AllMySat

Download on the App Store